Location: Rounton
(54.4000°N, 1.3500°W)
Time: 08:57:36
(UTC+01:00)

deb Agena D - Pass Details

Date: 18 June 2023
Orbit: 996 x 1023 km, 100.1° (Epoch: 29 September)

Event Time Altitude Azimuth Distance (km) Brightness Sun altitude
Exits shadow 00:04:07 - 130° (SE) 3,016 ? -11.1°
Reaches altitude 10° 00:04:48 10° 128° (SE) 2,769 ? -11.1°
Maximum altitude 00:10:37 44° 59° (ENE) 1,355 ? -11.3°
Drops below altitude 10° 00:16:27 10° 350° (N) 2,778 ? -11.5°
Sets 00:19:02 0° 344° (NNW) 3,732 ? -11.5°
